Orbital Elements at Epoch 2459200.5 (2020-Dec-17.0) TDB
Reference: JPL 33 (heliocentric ecliptic J2000)
Element | Value | Uncertainty (1-sigma) | Units |
e | .1274852161191883 | 2.7386e-08 | |
a | 2.54478524063883 | 9.6531e-09 | au |
q | 2.220362744259068 | 7.1304e-08 | au |
i | 6.708740959674062 | 3.8787e-06 | deg |
node | 103.2067547809851 | 2.626e-05 | deg |
peri | 133.2909799650755 | 3.1091e-05 | deg |
M | 258.5483116984428 | 1.7734e-05 | deg |
tp | 2459618.361068752149 (2022-Feb-07.86106875) | 7.3785e-05 | TDB |
period | 1482.774582357195 4.06 | 8.4369e-06 2.31e-08 | d yr |
n | .2427880840981919 | 1.3815e-09 | deg/d |
Q | 2.869207737018592 | 1.0884e-08 | au |
|
| | Orbit Determination Parameters
Additional Information
|